Lake Hood, AK

3:35 PM AKDT on July 27, 2017 (GMT -0800)
Lake Hood

Weather History for PALH - September, 2012

Change the Weather History Date:

Saturday, September 22, 2012

  Actual Average Record
Temperature  
Mean Temperature 58 °F -  
Max Temperature 66 °F 50 °F 66 °F (2012)
Min Temperature 51 °F 38 °F 30 °F (1996)
Degree Days  
Heating Degree Days 6    
Growing Degree Days 8 (Base 50)    
Moisture  
Dew Point 45 °F    
Average Humidity 65    
Maximum Humidity 89    
Minimum Humidity 37    
Precipitation  
Precipitation 0.02 in - - ()
Sea Level Pressure  
Sea Level Pressure 29.44 in    
Wind  
Wind Speed 7 mph (SSE)    
Max Wind Speed 28 mph    
Max Gust Speed 43 mph    
Visibility 10 miles    
Events Rain    
Averages and records for this station are not official NWS values.
T = Trace of Precipitation, MM = Missing Value Source: NWS Daily Summary

Daily Weather History Graph

Daily Weather History Graph

Search for Another Location

Airport or City:

Trip Planner

Search our weather history database for the weather conditions in past years. The results will help you decide how hot, cold, wet, or windy it might be!

Date:

Astronomy

Sep. 22, 2012 Rise Set
Actual Time 7:45 AM AKDT 7:57 PM AKDT
Civil Twilight 7:02 AM AKDT 8:40 PM AKDT
Nautical Twilight 6:10 AM AKDT 9:32 PM AKDT
Astronomical Twilight 5:12 AM AKDT 10:29 PM AKDT
Moon 4:56 PM AKDT (9/22) 11:32 PM AKDT (9/22)
Length of Visible Light 13h 38m
Length of Day
12h 12m
Waxing Crescent, 50% of the Moon is Illuminated
Sep 22
Waxing Crescent
Sep 29
Full
Oct 7
Last Quarter
Oct 15
New
Oct 21
First Quarter

Hourly Weather History & Observations

Time (AKDT) Temp. Dew Point Humidity Pressure Visibility Wind Dir Wind Speed Gust Speed Precip Events Conditions
12:53 AM 52.0 °F 48.0 °F 86% 29.56 in 10.0 mi North 6.9 mph - N/A   Mostly Cloudy
1:53 AM 53.1 °F 48.0 °F 83% 29.55 in 10.0 mi Variable 3.5 mph - N/A   Mostly Cloudy
2:53 AM 52.0 °F 48.0 °F 86% 29.53 in 10.0 mi WNW 4.6 mph - 0.00 in   Overcast
3:53 AM 52.0 °F 48.0 °F 86% 29.49 in 10.0 mi NNE 5.8 mph - N/A   Overcast
4:53 AM 52.0 °F 48.9 °F 89% 29.47 in 10.0 mi Calm Calm - 0.00 in Rain Light Rain
5:48 AM 51.8 °F 48.2 °F 88% 29.45 in 10.0 mi Calm Calm - 0.00 in   Mostly Cloudy
5:53 AM 52.0 °F 48.9 °F 89% 29.45 in 10.0 mi Calm Calm - 0.00 in   Mostly Cloudy
6:53 AM 52.0 °F 48.9 °F 89% 29.43 in 10.0 mi Calm Calm - N/A   Overcast
7:53 AM 64.0 °F 45.0 °F 50% 29.43 in 10.0 mi SSE 9.2 mph 21.9 mph 0.00 in Rain Light Rain
8:53 AM 61.0 °F 44.1 °F 54% 29.43 in 10.0 mi South 15.0 mph 27.6 mph 0.00 in   Overcast
9:53 AM 62.1 °F 43.0 °F 50% 29.43 in 10.0 mi SSE 13.8 mph 26.5 mph N/A   Mostly Cloudy
10:53 AM 64.9 °F 39.9 °F 40% 29.36 in 10.0 mi ESE 16.1 mph 31.1 mph N/A   Clear
11:53 AM 63.0 °F 42.1 °F 46% 29.40 in 10.0 mi SE 17.3 mph 42.6 mph N/A   Clear
12:53 PM 63.0 °F 43.0 °F 48% 29.41 in 10.0 mi SSE 12.7 mph 34.5 mph N/A   Clear
1:53 PM 66.0 °F 39.9 °F 38% 29.40 in 10.0 mi ESE 18.4 mph 25.3 mph N/A   Partly Cloudy
2:53 PM 66.0 °F 39.0 °F 37% 29.41 in 10.0 mi SE 19.6 mph 33.4 mph N/A   Mostly Cloudy
3:53 PM 64.0 °F 39.0 °F 40% 29.41 in 10.0 mi ESE 27.6 mph 42.6 mph N/A   Partly Cloudy
4:00 PM 64.4 °F 39.2 °F 40% 29.41 in 10.0 mi SE 10.4 mph 34.5 mph N/A   Partly Cloudy
4:53 PM 64.0 °F 39.0 °F 40% 29.42 in 10.0 mi SE 5.8 mph 21.9 mph N/A   Overcast
5:53 PM 57.9 °F 43.0 °F 58% 29.42 in 10.0 mi SW 10.4 mph 19.6 mph N/A   Mostly Cloudy
6:53 PM 57.0 °F 45.0 °F 64% 29.44 in 10.0 mi SW 3.5 mph - N/A   Partly Cloudy
7:53 PM 55.9 °F 45.0 °F 67% 29.43 in 10.0 mi NNW 3.5 mph - N/A   Scattered Clouds
8:53 PM 54.0 °F 46.9 °F 77% 29.43 in 10.0 mi NW 5.8 mph - N/A   Clear
9:53 PM 53.1 °F 46.9 °F 80% 29.42 in 10.0 mi WSW 5.8 mph - N/A   Mostly Cloudy
10:53 PM 53.1 °F 46.0 °F 77% 29.44 in 10.0 mi SW 4.6 mph - N/A   Mostly Cloudy
11:53 PM 51.1 °F 46.0 °F 83% 29.39 in 10.0 mi Calm Calm - 0.02 in   Partly Cloudy